Index of /20260429/WXO-DD/model_gdps/15km/12/201
Name Last modified Size Description
Parent Directory -
20260429T12Z_MSC_GDPS_AirTemp_AGL-120m_LatLon0.15_PT201H.grib2 2026-04-29 16:35 910K
20260429T12Z_MSC_GDPS_AirTemp_AGL-2m_LatLon0.15_PT201H.grib2 2026-04-29 16:35 1.0M
20260429T12Z_MSC_GDPS_AirTemp_AGL-40m_LatLon0.15_PT201H.grib2 2026-04-29 16:35 817K
20260429T12Z_MSC_GDPS_AirTemp_AGL-80m_LatLon0.15_PT201H.grib2 2026-04-29 16:35 920K
20260429T12Z_MSC_GDPS_AirTemp_IsbL-0001_LatLon0.15_PT201H.grib2 2026-04-29 16:35 665K
20260429T12Z_MSC_GDPS_AirTemp_IsbL-0005_LatLon0.15_PT201H.grib2 2026-04-29 16:35 693K
20260429T12Z_MSC_GDPS_AirTemp_IsbL-0500_LatLon0.15_PT201H.grib2 2026-04-29 16:35 1.0M
20260429T12Z_MSC_GDPS_AirTemp_IsbL-0700_LatLon0.15_PT201H.grib2 2026-04-29 16:35 955K
20260429T12Z_MSC_GDPS_AirTemp_IsbL-0850_LatLon0.15_PT201H.grib2 2026-04-29 16:35 1.1M
20260429T12Z_MSC_GDPS_AirTemp_IsbL-0925_LatLon0.15_PT201H.grib2 2026-04-29 16:35 1.1M
20260429T12Z_MSC_GDPS_AirTemp_IsbL-1000_LatLon0.15_PT201H.grib2 2026-04-29 16:35 1.1M
20260429T12Z_MSC_GDPS_Albedo_Sfc_LatLon0.15_PT201H.grib2 2026-04-29 16:35 244K
20260429T12Z_MSC_GDPS_ConvectivePrecip-Accum_Sfc_LatLon0.15_PT201H.grib2 2026-04-29 16:35 4.0M
20260429T12Z_MSC_GDPS_DewPointDepression_AGL-2m_LatLon0.15_PT201H.grib2 2026-04-29 16:35 768K
20260429T12Z_MSC_GDPS_DewPointDepression_IsbL-0500_LatLon0.15_PT201H.grib2 2026-04-29 16:35 1.0M
20260429T12Z_MSC_GDPS_DewPointDepression_IsbL-0700_LatLon0.15_PT201H.grib2 2026-04-29 16:35 1.1M
20260429T12Z_MSC_GDPS_DewPointDepression_IsbL-0850_LatLon0.15_PT201H.grib2 2026-04-29 16:35 1.2M
20260429T12Z_MSC_GDPS_DewPointDepression_IsbL-0925_LatLon0.15_PT201H.grib2 2026-04-29 16:35 1.0M
20260429T12Z_MSC_GDPS_DewPointDepression_IsbL-1000_LatLon0.15_PT201H.grib2 2026-04-29 16:35 1.0M
20260429T12Z_MSC_GDPS_DewPoint_AGL-2m_LatLon0.15_PT201H.grib2 2026-04-29 16:35 609K
20260429T12Z_MSC_GDPS_DownwardLongwaveRadiationFlux-Accum_Sfc_LatLon0.15_PT201H.grib2 2026-04-29 16:35 711K
20260429T12Z_MSC_GDPS_DownwardShortwaveRadiationFlux-Accum_Sfc_LatLon0.15_PT201H.grib2 2026-04-29 16:35 863K
20260429T12Z_MSC_GDPS_FreezingRain-Accum_Sfc_LatLon0.15_PT201H.grib2 2026-04-29 16:35 449K
20260429T12Z_MSC_GDPS_GeopotentialHeight_IsbL-0001_LatLon0.15_PT201H.grib2 2026-04-29 16:35 427K
20260429T12Z_MSC_GDPS_GeopotentialHeight_IsbL-0005_LatLon0.15_PT201H.grib2 2026-04-29 16:35 495K
20260429T12Z_MSC_GDPS_GeopotentialHeight_IsbL-0500_LatLon0.15_PT201H.grib2 2026-04-29 16:35 533K
20260429T12Z_MSC_GDPS_GeopotentialHeight_IsbL-0700_LatLon0.15_PT201H.grib2 2026-04-29 16:35 694K
20260429T12Z_MSC_GDPS_GeopotentialHeight_IsbL-0850_LatLon0.15_PT201H.grib2 2026-04-29 16:35 714K
20260429T12Z_MSC_GDPS_GeopotentialHeight_IsbL-0925_LatLon0.15_PT201H.grib2 2026-04-29 16:35 732K
20260429T12Z_MSC_GDPS_GeopotentialHeight_IsbL-1000_LatLon0.15_PT201H.grib2 2026-04-29 16:35 599K
20260429T12Z_MSC_GDPS_IcePellets-Accum_Sfc_LatLon0.15_PT201H.grib2 2026-04-29 16:35 147K
20260429T12Z_MSC_GDPS_LatentHeatNetFlux_Sfc_LatLon0.15_PT201H.grib2 2026-04-29 16:35 516K
20260429T12Z_MSC_GDPS_NetLongwaveRadiationFlux-Accum_Sfc_LatLon0.15_PT201H.grib2 2026-04-29 16:35 899K
20260429T12Z_MSC_GDPS_NetShortwaveRadiationFlux-Accum_Sfc_LatLon0.15_PT201H.grib2 2026-04-29 16:35 862K
20260429T12Z_MSC_GDPS_O3MixingRatio_Sfc_LatLon0.15_PT201H.grib2 2026-04-29 16:52 1.9M
20260429T12Z_MSC_GDPS_O3_EAtm_LatLon0.15_PT201H.grib2 2026-04-29 16:52 2.4M
20260429T12Z_MSC_GDPS_PlanetaryBoundaryLayerHeight_Sfc_LatLon0.15_PT201H.grib2 2026-04-29 16:35 2.4M
20260429T12Z_MSC_GDPS_Precip-Accum_Sfc_LatLon0.15_PT201H.grib2 2026-04-29 16:35 5.4M
20260429T12Z_MSC_GDPS_PrecipRate_Sfc_LatLon0.15_PT201H.grib2 2026-04-29 16:35 3.2M
20260429T12Z_MSC_GDPS_Pressure_MSL_LatLon0.15_PT201H.grib2 2026-04-29 16:35 832K
20260429T12Z_MSC_GDPS_Pressure_Sfc_LatLon0.15_PT201H.grib2 2026-04-29 16:35 1.1M
20260429T12Z_MSC_GDPS_RadiativeTemp_Sfc_LatLon0.15_PT201H.grib2 2026-04-29 16:35 663K
20260429T12Z_MSC_GDPS_Rain-Accum_Sfc_LatLon0.15_PT201H.grib2 2026-04-29 16:35 4.3M
20260429T12Z_MSC_GDPS_RelativeHumidity_AGL-2m_LatLon0.15_PT201H.grib2 2026-04-29 16:35 1.0M
20260429T12Z_MSC_GDPS_Runoff-Accum_Sfc_LatLon0.15_PT201H.grib2 2026-04-29 16:35 131K
20260429T12Z_MSC_GDPS_SensibleHeatNetFlux_Sfc_LatLon0.15_PT201H.grib2 2026-04-29 16:35 616K
20260429T12Z_MSC_GDPS_Snow-Accum_Sfc_LatLon0.15_PT201H.grib2 2026-04-29 16:35 2.1M
20260429T12Z_MSC_GDPS_SnowDepth_Sfc_LatLon0.15_PT201H.grib2 2026-04-29 16:35 1.7M
20260429T12Z_MSC_GDPS_SoilTemp_DBS-0to10cm_LatLon0.15_PT201H.grib2 2026-04-29 16:35 515K
20260429T12Z_MSC_GDPS_SoilTemp_Sfc_LatLon0.15_PT201H.grib2 2026-04-29 16:35 581K
20260429T12Z_MSC_GDPS_SoilVolumetricWaterContent_DBS-0to10cm_LatLon0.15_PT201H.grib2 2026-04-29 16:35 593K
20260429T12Z_MSC_GDPS_SoilVolumetricWaterContent_DBS-0to1cm_LatLon0.15_PT201H.grib2 2026-04-29 16:35 651K
20260429T12Z_MSC_GDPS_SpecificHumidity_AGL-120m_LatLon0.15_PT201H.grib2 2026-04-29 16:35 1.1M
20260429T12Z_MSC_GDPS_SpecificHumidity_AGL-2m_LatLon0.15_PT201H.grib2 2026-04-29 16:35 1.2M
20260429T12Z_MSC_GDPS_SpecificHumidity_AGL-40m_LatLon0.15_PT201H.grib2 2026-04-29 16:35 1.1M
20260429T12Z_MSC_GDPS_SpecificHumidity_AGL-80m_LatLon0.15_PT201H.grib2 2026-04-29 16:35 1.1M
20260429T12Z_MSC_GDPS_SpecificHumidity_IsbL-0001_LatLon0.15_PT201H.grib2 2026-04-29 16:35 1.1M
20260429T12Z_MSC_GDPS_SpecificHumidity_IsbL-0005_LatLon0.15_PT201H.grib2 2026-04-29 16:35 1.0M
20260429T12Z_MSC_GDPS_SpecificHumidity_IsbL-0500_LatLon0.15_PT201H.grib2 2026-04-29 16:35 1.5M
20260429T12Z_MSC_GDPS_SpecificHumidity_IsbL-0700_LatLon0.15_PT201H.grib2 2026-04-29 16:35 1.6M
20260429T12Z_MSC_GDPS_SpecificHumidity_IsbL-0850_LatLon0.15_PT201H.grib2 2026-04-29 16:35 2.0M
20260429T12Z_MSC_GDPS_SpecificHumidity_IsbL-0925_LatLon0.15_PT201H.grib2 2026-04-29 16:35 1.6M
20260429T12Z_MSC_GDPS_SpecificHumidity_IsbL-1000_LatLon0.15_PT201H.grib2 2026-04-29 16:35 1.5M
20260429T12Z_MSC_GDPS_SpecificHumidity_Sfc_LatLon0.15_PT201H.grib2 2026-04-29 16:35 671K
20260429T12Z_MSC_GDPS_Thickness_IsbL-0850to0700_LatLon0.15_PT201H.grib2 2026-04-29 16:35 470K
20260429T12Z_MSC_GDPS_Thickness_IsbL-1000to0500_LatLon0.15_PT201H.grib2 2026-04-29 16:35 371K
20260429T12Z_MSC_GDPS_Thickness_IsbL-1000to0850_LatLon0.15_PT201H.grib2 2026-04-29 16:35 487K
20260429T12Z_MSC_GDPS_TotalCloudCover_Sfc_LatLon0.15_PT201H.grib2 2026-04-29 16:35 837K
20260429T12Z_MSC_GDPS_UVIndex-ClearSky_Sfc_LatLon0.15_PT201H.grib2 2026-04-29 16:52 1.0M
20260429T12Z_MSC_GDPS_UVIndex_Sfc_LatLon0.15_PT201H.grib2 2026-04-29 16:52 1.5M
20260429T12Z_MSC_GDPS_UpwardLongwaveRadiationFlux_NTAtm_LatLon0.15_PT201H.grib2 2026-04-29 16:35 841K
20260429T12Z_MSC_GDPS_VerticalVelocity_IsbL-0500_LatLon0.15_PT201H.grib2 2026-04-29 16:35 1.3M
20260429T12Z_MSC_GDPS_VerticalVelocity_IsbL-0700_LatLon0.15_PT201H.grib2 2026-04-29 16:35 1.4M
20260429T12Z_MSC_GDPS_VerticalVelocity_IsbL-0850_LatLon0.15_PT201H.grib2 2026-04-29 16:35 1.4M
20260429T12Z_MSC_GDPS_WindDir_AGL-10m_LatLon0.15_PT201H.grib2 2026-04-29 16:35 1.3M
20260429T12Z_MSC_GDPS_WindDir_AGL-120m_LatLon0.15_PT201H.grib2 2026-04-29 16:35 1.3M
20260429T12Z_MSC_GDPS_WindDir_AGL-40m_LatLon0.15_PT201H.grib2 2026-04-29 16:35 1.4M
20260429T12Z_MSC_GDPS_WindDir_AGL-80m_LatLon0.15_PT201H.grib2 2026-04-29 16:35 1.4M
20260429T12Z_MSC_GDPS_WindDir_IsbL-0001_LatLon0.15_PT201H.grib2 2026-04-29 16:35 671K
20260429T12Z_MSC_GDPS_WindDir_IsbL-0005_LatLon0.15_PT201H.grib2 2026-04-29 16:35 816K
20260429T12Z_MSC_GDPS_WindDir_IsbL-0500_LatLon0.15_PT201H.grib2 2026-04-29 16:35 1.4M
20260429T12Z_MSC_GDPS_WindDir_IsbL-0700_LatLon0.15_PT201H.grib2 2026-04-29 16:35 1.6M
20260429T12Z_MSC_GDPS_WindDir_IsbL-0850_LatLon0.15_PT201H.grib2 2026-04-29 16:35 1.9M
20260429T12Z_MSC_GDPS_WindDir_IsbL-0925_LatLon0.15_PT201H.grib2 2026-04-29 16:35 2.0M
20260429T12Z_MSC_GDPS_WindDir_IsbL-1000_LatLon0.15_PT201H.grib2 2026-04-29 16:35 2.1M
20260429T12Z_MSC_GDPS_WindGust-Max_AGL-10m_LatLon0.15_PT201H.grib2 2026-04-29 16:35 2.2M
20260429T12Z_MSC_GDPS_WindGust-Min_AGL-10m_LatLon0.15_PT201H.grib2 2026-04-29 16:35 2.1M
20260429T12Z_MSC_GDPS_WindGust_AGL-10m_LatLon0.15_PT201H.grib2 2026-04-29 16:35 2.1M
20260429T12Z_MSC_GDPS_WindSpeed_AGL-10m_LatLon0.15_PT201H.grib2 2026-04-29 16:35 1.1M
20260429T12Z_MSC_GDPS_WindSpeed_AGL-120m_LatLon0.15_PT201H.grib2 2026-04-29 16:35 1.3M
20260429T12Z_MSC_GDPS_WindSpeed_AGL-40m_LatLon0.15_PT201H.grib2 2026-04-29 16:35 1.2M
20260429T12Z_MSC_GDPS_WindSpeed_AGL-80m_LatLon0.15_PT201H.grib2 2026-04-29 16:35 1.3M
20260429T12Z_MSC_GDPS_WindSpeed_IsbL-0001_LatLon0.15_PT201H.grib2 2026-04-29 16:35 654K
20260429T12Z_MSC_GDPS_WindSpeed_IsbL-0005_LatLon0.15_PT201H.grib2 2026-04-29 16:35 691K
20260429T12Z_MSC_GDPS_WindSpeed_IsbL-0500_LatLon0.15_PT201H.grib2 2026-04-29 16:35 1.1M
20260429T12Z_MSC_GDPS_WindSpeed_IsbL-0700_LatLon0.15_PT201H.grib2 2026-04-29 16:35 1.5M
20260429T12Z_MSC_GDPS_WindSpeed_IsbL-0850_LatLon0.15_PT201H.grib2 2026-04-29 16:35 1.8M
20260429T12Z_MSC_GDPS_WindSpeed_IsbL-0925_LatLon0.15_PT201H.grib2 2026-04-29 16:35 1.8M
20260429T12Z_MSC_GDPS_WindSpeed_IsbL-1000_LatLon0.15_PT201H.grib2 2026-04-29 16:35 1.9M
20260429T12Z_MSC_GDPS_WindU_AGL-10m_LatLon0.15_PT201H.grib2 2026-04-29 16:35 1.3M
20260429T12Z_MSC_GDPS_WindU_AGL-120m_LatLon0.15_PT201H.grib2 2026-04-29 16:35 1.0M
20260429T12Z_MSC_GDPS_WindU_AGL-40m_LatLon0.15_PT201H.grib2 2026-04-29 16:35 1.0M
20260429T12Z_MSC_GDPS_WindU_AGL-80m_LatLon0.15_PT201H.grib2 2026-04-29 16:35 1.0M
20260429T12Z_MSC_GDPS_WindU_IsbL-0001_LatLon0.15_PT201H.grib2 2026-04-29 16:35 504K
20260429T12Z_MSC_GDPS_WindU_IsbL-0005_LatLon0.15_PT201H.grib2 2026-04-29 16:35 690K
20260429T12Z_MSC_GDPS_WindU_IsbL-0500_LatLon0.15_PT201H.grib2 2026-04-29 16:35 1.1M
20260429T12Z_MSC_GDPS_WindU_IsbL-0700_LatLon0.15_PT201H.grib2 2026-04-29 16:35 1.2M
20260429T12Z_MSC_GDPS_WindU_IsbL-0850_LatLon0.15_PT201H.grib2 2026-04-29 16:35 1.4M
20260429T12Z_MSC_GDPS_WindU_IsbL-0925_LatLon0.15_PT201H.grib2 2026-04-29 16:35 1.5M
20260429T12Z_MSC_GDPS_WindU_IsbL-1000_LatLon0.15_PT201H.grib2 2026-04-29 16:35 1.4M
20260429T12Z_MSC_GDPS_WindV_AGL-10m_LatLon0.15_PT201H.grib2 2026-04-29 16:35 1.3M
20260429T12Z_MSC_GDPS_WindV_AGL-120m_LatLon0.15_PT201H.grib2 2026-04-29 16:35 1.0M
20260429T12Z_MSC_GDPS_WindV_AGL-40m_LatLon0.15_PT201H.grib2 2026-04-29 16:35 1.0M
20260429T12Z_MSC_GDPS_WindV_AGL-80m_LatLon0.15_PT201H.grib2 2026-04-29 16:35 1.0M
20260429T12Z_MSC_GDPS_WindV_IsbL-0001_LatLon0.15_PT201H.grib2 2026-04-29 16:35 561K
20260429T12Z_MSC_GDPS_WindV_IsbL-0005_LatLon0.15_PT201H.grib2 2026-04-29 16:35 786K
20260429T12Z_MSC_GDPS_WindV_IsbL-0500_LatLon0.15_PT201H.grib2 2026-04-29 16:35 1.1M
20260429T12Z_MSC_GDPS_WindV_IsbL-0700_LatLon0.15_PT201H.grib2 2026-04-29 16:35 1.2M
20260429T12Z_MSC_GDPS_WindV_IsbL-0850_LatLon0.15_PT201H.grib2 2026-04-29 16:35 1.4M
20260429T12Z_MSC_GDPS_WindV_IsbL-0925_LatLon0.15_PT201H.grib2 2026-04-29 16:35 1.5M
20260429T12Z_MSC_GDPS_WindV_IsbL-1000_LatLon0.15_PT201H.grib2 2026-04-29 16:35 1.4M